Regional Weather Roundup
Issued by NWS

Home | Current Version | Previous Version | Graphics & Text | Print | Product List | Glossary On
Versions: 1 2 3 4 5 6 7 8 9 10 11 12 13 14 15 16 17 18 19 20 21 22 23 24 25 26 27 28 29 30 31 32 33 34 35 36 37 38 39 40 41 42 43 44 45 46 47 48 49 50
000
ASUS43 KTOP 201908
RWRKS

WEATHER ROUNDUP FOR KANSAS
NATIONAL WEATHER SERVICE GOODLAND KS
200 PM CDT MON APR 20 2015

NOTE:  "FAIR" INDICATES FEW OR NO CLOUDS BELOW 12,000 FEET WITH NO
SIGNIFICANT WEATHER AND/OR OBSTRUCTIONS TO VISIBILITY.

KSZ001>006-013>018-027>032-041>047-202000-
NORTHWEST KANSAS

CITY           SKY/WX    TMP DP  RH WIND       PRES   REMARKS
GOODLAND       MOSUNNY   53  28  38 NW12G18   29.97F
HAYS           MOSUNNY   61  25  25 NW17G24   29.95F
HILL CITY      MOSUNNY   58  27  30 NW22G31   29.95F
RUSSELL        MOSUNNY   59  24  26 NW18G28   29.93F
$$

KSZ061>065-074>080-084>089-202000-
SOUTHWEST KANSAS

CITY           SKY/WX    TMP DP  RH WIND       PRES   REMARKS
DODGE CITY     CLOUDY    57  24  28 NW9       29.99F
ELKHART          N/A     59  27  29 W10         N/A
GARDEN CITY    CLOUDY    55  25  31 NW7       29.98F
GREAT BEND     PTSUNNY   57  30  35 NW18G25   29.96F
LIBERAL        PTSUNNY   57  27  30 N3        30.03F
PRATT          PTSUNNY   59  28  31 NW12G18   29.99F
$$

KSZ066>073-081>083-090>101-202000-
SOUTHEAST KANSAS

CITY           SKY/WX    TMP DP  RH WIND       PRES   REMARKS
CHANUTE        SUNNY     59  28  30 NW22G33   29.93F
COFFEYVILLE    SUNNY     60  30  32 NW20G30   29.95F
HUTCHINSON     PTSUNNY   60  29  30 W18G31    29.96F
MEDICINE LODGE   N/A     62  27  26 W10G20    29.98F
NEWTON         MOSUNNY   57  28  33 NW25G33   29.96F
PARSONS        SUNNY     60  34  37 NW13G24   29.95F
WICHITA INTL   MOSUNNY   61  30  31 NW18G25   29.97F
WICHITA JABRA  MOSUNNY   60  31  33 NW16G26   29.96F
WICHITA MCCONL MOSUNNY   59  31  34 NW14G21   29.96F
WINFIELD       SUNNY     61  33  35 W21G28    29.99F
$$

KSZ007>012-019>026-033>040-048>060-102>105-202000-
NORTHEAST KANSAS

CITY           SKY/WX    TMP DP  RH WIND       PRES   REMARKS
CONCORDIA      PTSUNNY   58  23  26 NW22G36   29.90F
EMPORIA        MOSUNNY   58  26  29 NW20G31   29.91F
LAWRENCE       SUNNY     58  24  27 NW22G37   29.87F
MANHATTAN      MOSUNNY   59  25  27 NW12G28   29.90F
MARYSVILLE     MOSUNNY   57  28  33 NW28G36   29.87F
OLATHE IND     SUNNY     57  29  34 NW17G31   29.87F
OLATHE EXE     MOSUNNY   56  28  34 W16G29    29.84F
SALINA         MOSUNNY   62  28  27 NW25G33   29.93F
TOPEKA BILLARD SUNNY     58  25  28 NW20G39   29.88F
TOPEKA FORBES  SUNNY     58  26  29 NW24G36   29.87F
$$



USA.gov is the U.S. government's official web portal to all federal, state and local government web resources and services.